POERUNWV Weather Reports


time (UTC)temp
C
wind
direction
speed
KPH
gust
KPH
rain 1hr
cm
rain 24hr
cm
rain mn
cm
humidity
%
barometer
mb
20260503191555 10 282 3.2 12.9 0.00 0.00 0.00 40 1016.5
20260503190038 10 259 6.4 12.9 0.00 0.00 0.00 37 1016.6
20260503184551 10 319 3.2 14.5 0.00 0.00 0.00 38 1016.7
20260503183042 10 249 3.2 8.0 0.00 0.00 0.00 38 1017.0
20260503181534 10 350 4.8 9.7 0.00 0.00 0.00 41 1017.0
20260503180040 9 283 4.8 12.9 0.00 0.00 0.00 41 1017.3
20260503174549 9 333 4.8 12.9 0.00 0.00 0.00 43 1017.3
20260503173037 8 338 4.8 14.5 0.00 0.00 0.00 43 1017.4
20260503171536 8 306 4.8 12.9 0.00 0.00 0.00 44 1017.4
20260503081551 0 0 0.0 1.6 0.00 0.00 0.00 87 1015.4
20260503071557 0 311 1.6 4.8 0.00 0.00 0.00 86 1014.8
20260503054551 0 0 0.0 1.6 0.00 0.00 0.00 84 1014.7
20260503053032 0 352 0.0 3.2 0.00 0.00 0.00 83 1014.8
20260503051542 0 0 0.0 3.2 0.00 0.00 0.00 82 1014.7
20260503050036 1 350 1.6 4.8 0.00 0.00 0.00 82 1014.7
20260503044535 1 329 1.6 3.2 0.00 0.00 0.00 82 1014.8
20260503043035 1 351 1.6 6.4 0.00 0.00 0.00 81 1014.9
20260503041535 1 336 1.6 4.8 0.00 0.00 0.00 81 1014.8
20260503040034 1 353 1.6 6.4 0.00 0.00 0.00 80 1014.9
20260503034538 2 338 0.0 4.8 0.00 0.00 0.00 79 1014.9
20260503033048 2 334 1.6 8.0 0.00 0.00 0.00 78 1014.9
20260503031543 2 350 3.2 8.0 0.00 0.00 0.00 77 1014.8
20260503030037 2 350 3.2 8.0 0.00 0.00 0.00 76 1014.7
20260503024543 2 344 1.6 6.4 0.00 0.00 0.00 73 1014.8
20260503023035 3 348 1.6 8.0 0.00 0.00 0.00 71 1014.8
20260503021536 3 330 3.2 9.7 0.00 0.00 0.00 69 1014.7
20260503020035 3 317 1.6 9.7 0.00 0.00 0.00 69 1014.7
20260503014534 3 335 4.8 9.7 0.00 0.00 0.00 69 1014.8
20260503013036 3 353 1.6 8.0 0.00 0.00 0.00 67 1014.7
20260503011531 3 353 3.2 9.7 0.00 0.00 0.00 65 1014.5
20260503010036 3 348 1.6 8.0 0.00 0.00 0.00 65 1014.3
20260503004538 4 346 3.2 6.4 0.00 0.00 0.00 60 1014.3
20260503003039 5 330 1.6 6.4 0.00 0.00 0.00 58 1013.9
20260503001533 5 308 1.6 6.4 0.00 0.00 0.00 57 1013.9
20260503000037 5 324 3.2 8.0 0.00 0.00 0.00 55 1013.8
20260502234547 5 306 3.2 8.0 0.00 0.00 0.00 53 1013.6
20260502233035 5 310 3.2 6.4 0.00 0.00 0.00 51 1013.4
20260502231534 6 311 1.6 4.8 0.00 0.00 0.00 52 1013.3
20260502230037 6 344 1.6 6.4 0.00 0.00 0.00 51 1013.2
20260502224537 6 357 1.6 8.0 0.00 0.00 0.00 55 1013.1
20260502223036 6 314 1.6 6.4 0.00 0.00 0.00 51 1013.1
20260502221536 6 310 1.6 9.7 0.00 0.00 0.00 50 1013.0
20260502220035 6 306 1.6 6.4 0.00 0.00 0.00 50 1013.0
20260502214537 7 312 4.8 9.7 0.00 0.00 0.00 50 1012.9
20260502213044 7 344 3.2 9.7 0.00 0.00 0.00 48 1012.8
20260502211538 7 327 3.2 12.9 0.00 0.00 0.00 49 1012.7
20260502210034 6 308 3.2 6.4 0.00 0.00 0.00 47 1012.8
20260502204536 7 298 3.2 8.0 0.00 0.00 0.00 47 1012.8
20260502203044 7 311 3.2 9.7 0.00 0.00 0.00 49 1012.9
20260502201539 7 309 3.2 6.4 0.00 0.00 0.00 49 1012.9
20260502200035 6 315 3.2 12.9 0.00 0.00 0.00 47 1013.1
20260502194535 6 311 1.6 4.8 0.00 0.00 0.00 50 1013.1
20260502193050 6 352 1.6 6.4 0.00 0.00 0.00 50 1013.2